Regional Weather Roundup
Issued by NWS

Home | Current Version | Previous Version | Text Only | Print | Product List | Glossary On
Versions: 1 2 3 4 5 6 7 8 9 10 11 12 13 14 15 16 17 18 19 20 21 22 23 24 25 26 27 28 29 30 31 32 33 34 35 36 37 38 39 40 41 42 43 44 45 46 47 48 49 50
000
ASUS43 KLSX 032207
RWRMO

WEATHER SUMMARY FOR MISSOURI
NATIONAL WEATHER SERVICE SPRINGFIELD MO
500 PM CDT WED JUN 03 2020

NOTE: "FAIR" INDICATES FEW OR NO CLOUDS BELOW 12,000 FEET WITH NO
       SIGNIFICANT WEATHER AND/OR OBSTRUCTIONS TO VISIBILITY.
       CURRENT SKY AND/OR WEATHER CONDITIONS ARE NOT AVAILABLE FOR
       CHILLICOTHE AND FARMINGTON.

MOZ001>031-035>038-043-044-053-054-032300-
...NORTHERN AND WESTERN MISSOURI...

CITY           SKY/WX    TMP DP  RH WIND       PRES   REMARKS
KANSAS CTY INT PTSUNNY   89  73  59 SW12G23   29.79F HX  97
KANSAS C DTWN  FAIR      91  70  49 SW13      29.77F HX  96
LEE`S SUMMIT   FAIR      92  71  50 W14G23    29.80F HX  98
ST JOSEPH      FAIR      91  70  49 CALM      29.77F HX  96
CHILLICOTHE      N/A     89  73  59 CALM      29.78F HX  97
KIRKSVILLE     FAIR      87  73  62 W3        29.79F HX  94

$$
MOZ066>068-077>081-088>096-101>105-032300-
...SOUTHWEST MISSOURI...

CITY           SKY/WX    TMP DP  RH WIND       PRES   REMARKS
SPRINGFIELD    FAIR      87  70  56 SW10      29.87S HX  92
JOPLIN         FAIR      88  70  55 SW14      29.86F HX  93
BRANSON        MOSUNNY   79  72  78 SE14      29.92F

$$
MOZ032>034-039>042-045>050-055>058-069>072-032300-
...CENTRAL MISSOURI...

CITY           SKY/WX    TMP DP  RH WIND       PRES   REMARKS
COLUMBIA       FAIR      90  71  53 SW15      29.81F HX  96
JEFFERSON CITY FAIR      91  70  49 SW12      29.79F HX  96
ROLLA          FAIR      88  70  55 W12       29.84F HX  93
SEDALIA        FAIR      90  71  53 SW14      29.82F HX  96
WHITEMAN AFB   MOSUNNY   91  75  59 SW13G18   29.76F HX 100
WARRENSBURG      N/A     90  70  51 SW8       29.80S HX  95
OSAGE BEACH    FAIR      89  72  56 SW8       29.84F HX  96

$$
MOZ051-052-059>065-032300-
...EAST CENTRAL MISSOURI...

CITY           SKY/WX    TMP DP  RH WIND       PRES   REMARKS
ST LOUIS INTL  PTSUNNY   92  68  45 S10       29.79F HX  96
SPIRIT OF STL  FAIR      92  70  48 SW9       29.78S HX  97
ST CHARLES     FAIR      94  68  42 W9        29.78R HX  98

$$
MOZ072>076-082>087-097>100-106>115-032300-
...SOUTH CENTRAL AND SOUTHEAST MISSOURI...

CITY           SKY/WX    TMP DP  RH WIND       PRES   REMARKS
CAPE GIRARDEAU FAIR      89  68  49 SW9       29.82F HX  93
FARMINGTON     PTSUNNY   87  72  60 S8        29.84F HX  93
POPLAR BLUFF   FAIR      85  68  56 S9        29.85F
WEST PLAINS    FAIR      71  66  84 SW6       29.93F

$$




USA.gov is the U.S. government's official web portal to all federal, state and local government web resources and services.